Home > Weather > Orange > Past weeks

Flag for USA Past Weather in Orange, California, USA — Yesterday and Last 2 Weeks

Now
75 °F

Scattered clouds.


Feels Like: 77 °F
Forecast: 67 / 89 °F
Wind: 14 mph from South

Location: John Wayne Airport-Orange County Airport

Current Time: Jul 23, 2016 at 7:59:15 PM

Latest Report: Jul 23, 2016 at 6:53 PM


Visibility: 9 mi

Pressure: 29.79 "Hg

Humidity: 71%

Dew Point: 65 °F

Location of OrangeLocation

Past Weather in Orange — Graph

°F

Orange Temperature Yesterday

Maximum temperature yesterday: 90 °F (at 11:53 AM)
Minimum temperature yesterday: 68 °F (at 4:53 AM)
Average temperature yesterday: 79 °F

High & Low Weather Summary for the Past Weeks

 TemperatureHumidityPressure
High90 °F (Jul 22, 11:53 AM)90% (Jul 9, 11:53 PM)30.03 "Hg (Jul 9, 11:53 PM)
Low65 °F (Jul 9, 4:53 AM)33% (Jul 20, 3:53 PM)29.79 "Hg (Jul 23, 3:53 AM)
Average72 °F70%29.93 "Hg
* Reported Jul 8 5:53 PM — Jul 23 5:53 PM, Orange, Weather by CustomWeather, © 2016

Note: Actual official high and low records may vary slightly from our data, if they occured in-between our weather recording intervals... More about our weather records

Advertising

Orange Weather History for the Previous 24 Hours

Scroll right to see more
 ConditionsComfort  
Time TempWeatherWind HumidityBarometerVisibility
5:53 PM
Sat, Jul 23
77 °FScattered clouds.16 mph66%29.79 "Hg9 mi
4:53 PM79 °FScattered clouds.14 mph62%29.79 "Hg10 mi
3:53 PM82 °FScattered clouds.17 mph55%29.80 "Hg10 mi
2:53 PM81 °FScattered clouds.17 mph60%29.81 "Hg10 mi
1:53 PM81 °FScattered clouds.17 mph65%29.80 "Hg10 mi
12:53 PM82 °FScattered clouds.20 mph58%29.80 "Hg10 mi
11:53 AM81 °FPassing clouds.13 mph58%29.80 "Hg10 mi
10:53 AM84 °FPassing clouds.10 mph51%29.80 "Hg10 mi
9:53 AM79 °FPassing clouds.6 mph60%29.81 "Hg10 mi
8:53 AM79 °FPassing clouds.9 mph60%29.82 "Hg10 mi
7:53 AM75 °FPassing clouds.No wind64%29.81 "Hg10 mi
6:53 AM73 °FPassing clouds.3 mph69%29.80 "Hg10 mi
5:53 AM71 °FPassing clouds.No wind68%29.80 "Hg10 mi
4:53 AM71 °FClear.No wind78%29.79 "Hg10 mi
3:53 AM72 °FClear.3 mph81%29.79 "Hg10 mi
2:53 AM73 °FClear.No wind71%29.80 "Hg10 mi
1:53 AM72 °FClear.6 mph76%29.81 "Hg10 mi
12:53 AM73 °FClear.5 mph74%29.82 "Hg10 mi
11:53 PM
Fri, Jul 22
74 °FClear.3 mph64%29.82 "Hg10 mi
10:53 PM75 °FPassing clouds.5 mph64%29.82 "Hg10 mi
9:53 PM76 °FPassing clouds.5 mph64%29.82 "Hg10 mi
8:53 PM76 °FPartly sunny.6 mph67%29.81 "Hg10 mi
7:53 PM81 °FScattered clouds.5 mph49%29.81 "Hg10 mi
Weather by CustomWeather, © 2016

See weather overviewHow to use our weather pages